[[{"header":{"parameterUnit":"m.s-1","parameterCategory":1,"la1":30.2991,"la2":30.254,"lo1":-89.0895,"lo2":-89.0444,"dy":0.0017,"dx":0.0017,"nx":28,"ny":28,"refTime":"2024-09-25T21:00:00:Z","depth":0,"parameterNumber":2,"parameterNumberName":"U-component_of_WINDS"},"data":[0,0,0,0,0,0,0,0,0,0,0,0,0,0,0,0,0,0,0,0,0,0,0,0,0,0,0,0,0,0,0,0,0,0,0,0,0,0,0,0,0,0,0,0,0,0,0,0,0,0,0,0,0,0,0,0,0,0,1.4212,1.4212,0,1.4194,1.4193,1.4193,1.4178,1.4178,1.4178,1.4178,1.4157,1.4157,1.4156,0,0,0,0,0,0,0,0,0,0,0,0,0,1.4234,1.4234,1.4212,1.4212,1.4212,1.4194,1.4193,1.4193,1.4178,1.4178,1.4178,1.4177,1.4157,1.4157,1.4156,0,0,0,0,0,0,0,0,0,0,0,0,0,1.4221,1.4234,1.4212,1.4202,1.4201,1.4194,1.4193,1.4193,1.4178,1.4178,1.4178,1.4177,1.4157,1.4157,1.4156,1.4157,0,0,1.4154,1.4154,0,0,0,0,0,0,0,0,1.4222,1.422,1.4204,1.4203,1.4201,1.4188,1.4193,1.4181,1.4178,1.4187,1.4178,1.4177,1.4167,1.4166,1.4163,1.4156,1.4155,1.4154,1.4154,1.4154,1.4153,0,0,0,0,0,0,0,1.4223,1.4221,1.4205,1.4204,1.4202,1.4198,1.4196,1.4191,1.4178,1.4186,1.4185,1.4183,1.4167,1.4163,1.4162,1.4155,1.4154,1.4154,1.4153,1.4153,1.4149,1.4149,0,0,0,0,0,0,1.4225,1.4222,1.4205,1.4204,1.4211,1.4198,1.4196,1.4192,1.4179,1.4176,1.4183,1.4182,1.4165,1.4163,1.4161,1.4162,1.4154,1.4153,1.4153,1.4148,1.4149,1.4149,0,0,0,0,0,0,1.4226,1.4224,1.4206,1.4213,1.421,1.4198,1.4194,1.4192,1.4189,1.4176,1.4174,1.4182,1.4164,1.4162,1.4159,1.4161,1.4153,1.4152,1.4148,1.4149,1.4149,1.4163,0,0,0,0,0,0,1.4226,1.4224,1.4224,1.4213,1.421,1.4203,1.4195,1.4192,1.4188,1.4187,1.4175,1.4173,1.4164,1.416,1.4158,1.416,1.4152,1.4148,1.4148,1.4149,1.4162,1.4163,1.4165,0,0,0,0,0,1.4227,1.4228,1.4224,1.4222,1.421,1.4204,1.4202,1.4192,1.4188,1.4188,1.4181,1.4173,1.4161,1.4159,1.4157,1.4159,1.4148,1.4148,1.4149,1.4161,1.4163,1.4165,0,0,0,0,0,0,1.4239,1.4226,1.4222,1.4219,1.4213,1.4201,1.4201,1.4195,1.4189,1.4187,1.4176,1.4173,1.4171,1.4165,1.4163,1.416,1.4154,1.4154,1.4164,1.4165,1.4167,1.4168,1.4151,0,0,0,0,0,1.4242,1.4238,1.4227,1.4226,1.4223,1.4213,1.421,1.4203,1.4196,1.4193,1.4184,1.4177,1.4172,1.4168,1.4163,1.4162,1.4159,1.4162,1.4163,1.4165,1.4165,1.4164,1.4166,1.4151,1.4151,1.4151,0,0,1.4247,1.4239,1.4238,1.4228,1.4223,1.4219,1.421,1.4207,1.4204,1.4192,1.4188,1.4182,1.4173,1.4171,1.4169,1.4166,1.4168,1.4165,1.4167,1.4166,1.4165,1.4166,1.4168,1.4151,1.4151,1.4151,0,0,1.4254,1.4248,1.4247,1.4241,1.4233,1.4226,1.4226,1.4216,1.4212,1.4208,1.4199,1.4196,1.4187,1.4181,1.4177,1.4184,1.4177,1.4182,1.4189,1.4189,1.419,1.4191,1.4194,1.4195,1.4183,1.4183,1.4183,0,1.4261,1.4255,1.4247,1.4244,1.424,1.423,1.4229,1.4224,1.4214,1.4212,1.4209,1.4198,1.4191,1.4188,1.419,1.4187,1.4186,1.4183,1.4191,1.4192,1.4192,1.4195,1.4196,1.4183,1.4183,1.4183,1.4183,0,1.4264,1.4261,1.4261,1.4252,1.4249,1.4247,1.4238,1.4235,1.423,1.4224,1.422,1.4212,1.4205,1.4204,1.4198,1.42,1.4198,1.4193,1.4186,1.4195,1.4197,1.4197,1.4184,1.4184,1.4184,1.4184,0,0,1.4277,1.4265,1.4265,1.4261,1.4253,1.4249,1.4248,1.4242,1.424,1.4234,1.4232,1.4225,1.4221,1.4216,1.421,1.421,1.4216,1.4204,1.4204,1.4207,1.4218,1.4222,1.4223,1.4212,1.4212,1.4212,1.4219,0,1.4282,1.4278,1.4271,1.4269,1.4266,1.4257,1.4256,1.425,1.4245,1.4241,1.4235,1.4231,1.4225,1.4223,1.4222,1.4215,1.4218,1.4215,1.421,1.4209,1.4211,1.4224,1.4227,1.4234,1.4219,1.422,1.422,0,1.4287,1.4282,1.4281,1.4273,1.4271,1.427,1.4264,1.4261,1.4255,1.4251,1.4247,1.4241,1.4238,1.4233,1.423,1.4228,1.4226,1.4222,1.4222,1.422,1.4214,1.4222,1.4235,1.4236,1.4221,1.4221,1.4221,0,1.4296,1.429,1.4288,1.4285,1.4276,1.4275,1.4272,1.4265,1.4262,1.4258,1.4256,1.4251,1.4248,1.4244,1.4237,1.4234,1.4234,1.4228,1.4231,1.4231,1.423,1.423,1.4243,1.423,1.423,1.423,1.423,0,1.4302,1.4301,1.4292,1.4291,1.429,1.4282,1.4281,1.4277,1.4271,1.4269,1.4262,1.426,1.4251,1.4248,1.4242,1.424,1.4239,1.4236,1.4234,1.4236,1.4236,1.4233,1.4232,1.423,1.423,1.423,1.423,0,1.4311,1.4305,1.4303,1.4295,1.4293,1.4293,1.4286,1.4285,1.428,1.4277,1.4276,1.4268,1.4265,1.4257,1.4251,1.4247,1.4247,1.4244,1.4249,1.4248,1.4251,1.425,1.4261,1.4262,1.425,1.425,1.425,0,1.4315,1.4315,1.4307,1.4306,1.4303,1.43,1.4297,1.429,1.4288,1.4282,1.4281,1.4277,1.4274,1.4268,1.4262,1.4257,1.4254,1.4259,1.4253,1.4256,1.4254,1.4254,1.4254,1.4259,1.4259,1.426,1.426,0,1.4323,1.432,1.4317,1.4314,1.4311,1.4308,1.4304,1.4303,1.4295,1.4293,1.4289,1.4287,1.4281,1.4277,1.4272,1.4268,1.4263,1.4262,1.4262,1.4263,1.4266,1.4264,1.4251,1.4261,1.4261,1.4261,1.4261,1.4261,1.4329,1.4329,1.4324,1.4321,1.4318,1.4315,1.4313,1.4309,1.4306,1.4301,1.4297,1.4294,1.4289,1.4282,1.4279,1.4276,1.4274,1.4274,1.4274,1.4274,1.4275,1.4268,1.4276,1.4276,1.4276,1.4275,1.4275,0,1.4336,1.4333,1.4331,1.4326,1.4324,1.432,1.4316,1.4314,1.4312,1.4308,1.4305,1.4302,1.4298,1.4292,1.4289,1.4288,1.4285,1.4287,1.4286,1.4286,1.4278,1.4278,1.4289,1.4289,1.4289,1.4289,1.4289,1.4289,1.434,1.4339,1.4336,1.4333,1.433,1.4327,1.4325,1.4322,1.4319,1.4316,1.4313,1.431,1.4305,1.4301,1.4298,1.4296,1.4295,1.4298,1.4295,1.4288,1.4286,1.4285,1.4285,1.4298,1.4298,1.4303,1.4303,1.4303]},{"header":{"parameterUnit":"m.s-1","parameterCategory":1,"la1":30.2991,"la2":30.254,"lo1":-89.0895,"lo2":-89.0444,"dy":0.0017,"dx":0.0017,"nx":28,"ny":28,"refTime":"2024-09-25T21:00:00:Z","depth":0,"parameterNumber":3,"parameterNumberName":"V-component_of_WINDS"},"data":[0,0,0,0,0,0,0,0,0,0,0,0,0,0,0,0,0,0,0,0,0,0,0,0,0,0,0,0,0,0,0,0,0,0,0,0,0,0,0,0,0,0,0,0,0,0,0,0,0,0,0,0,0,0,0,0,0,0,-8.2661,-8.2663,0,-8.2847,-8.2849,-8.2851,-8.2765,-8.276,-8.2756,-8.2751,-8.2939,-8.2948,-8.2957,0,0,0,0,0,0,0,0,0,0,0,0,0,-8.2227,-8.2235,-8.266,-8.2663,-8.2665,-8.2847,-8.2849,-8.2852,-8.2766,-8.276,-8.2754,-8.2749,-8.2936,-8.2947,-8.2958,0,0,0,0,0,0,0,0,0,0,0,0,0,-8.2414,-8.2238,-8.266,-8.2644,-8.2645,-8.2846,-8.285,-8.2853,-8.2767,-8.276,-8.2753,-8.2746,-8.2932,-8.2946,-8.2959,-8.3187,0,0,-8.3002,-8.3008,0,0,0,0,0,0,0,0,-8.2404,-8.243,-8.2644,-8.2646,-8.2646,-8.2776,-8.2765,-8.2965,-8.2769,-8.272,-8.2751,-8.2743,-8.289,-8.2907,-8.2957,-8.3195,-8.3203,-8.3004,-8.3012,-8.3018,-8.3022,0,0,0,0,0,0,0,-8.2391,-8.2422,-8.2734,-8.2647,-8.2649,-8.2627,-8.2646,-8.2803,-8.2842,-8.2724,-8.2718,-8.2742,-8.2889,-8.2944,-8.2961,-8.3206,-8.3003,-8.3016,-8.3024,-8.303,-8.3642,-8.3649,0,0,0,0,0,0,-8.2379,-8.2412,-8.2728,-8.274,-8.2506,-8.264,-8.2661,-8.2741,-8.284,-8.2849,-8.2748,-8.2737,-8.2923,-8.2945,-8.2967,-8.3242,-8.3018,-8.3031,-8.3039,-8.3634,-8.3644,-8.3652,0,0,0,0,0,0,-8.237,-8.2408,-8.2721,-8.2574,-8.2613,-8.2655,-8.2746,-8.2749,-8.2803,-8.2858,-8.2864,-8.2797,-8.2919,-8.2947,-8.3133,-8.3247,-8.3037,-8.305,-8.3625,-8.3637,-8.3648,-8.3791,0,0,0,0,0,0,-8.2358,-8.2405,-8.2493,-8.2577,-8.2621,-8.2885,-8.2753,-8.2757,-8.2828,-8.2816,-8.2906,-8.2914,-8.2915,-8.3113,-8.3147,-8.3262,-8.3061,-8.3615,-8.363,-8.3644,-8.3777,-8.3807,-8.3832,0,0,0,0,0,-8.2343,-8.2524,-8.2497,-8.2536,-8.2731,-8.2892,-8.2917,-8.2916,-8.2838,-8.2926,-8.2961,-8.2911,-8.3229,-8.3133,-8.3171,-8.3292,-8.3608,-8.3626,-8.3643,-8.3764,-8.3801,-8.3832,0,0,0,0,0,0,-8.245,-8.2535,-8.2506,-8.2721,-8.28,-8.2877,-8.2988,-8.2954,-8.3056,-8.3041,-8.3034,-8.3055,-8.3249,-8.3288,-8.318,-8.3518,-8.3406,-8.3432,-8.3485,-8.352,-8.3547,-8.3535,-8.3073,0,0,0,0,0,-8.2499,-8.2624,-8.269,-8.2873,-8.2915,-8.2945,-8.3015,-8.3008,-8.3089,-8.3122,-8.317,-8.325,-8.3368,-8.3446,-8.3557,-8.3781,-8.38,-8.3883,-8.3911,-8.3933,-8.3957,-8.408,-8.4118,-8.371,-8.371,-8.371,0,0,-8.2601,-8.2663,-8.2741,-8.2897,-8.2957,-8.3086,-8.2974,-8.3114,-8.321,-8.3142,-8.3322,-8.3361,-8.3449,-8.3656,-8.375,-8.3695,-8.4073,-8.3956,-8.3974,-8.3985,-8.4102,-8.4141,-8.4175,-8.3722,-8.372,-8.3718,0,0,-8.2853,-8.2912,-8.3072,-8.3136,-8.323,-8.3249,-8.3287,-8.337,-8.3394,-8.3574,-8.3527,-8.364,-8.3843,-8.3909,-8.3969,-8.4248,-8.4206,-8.4284,-8.4429,-8.455,-8.4582,-8.461,-8.4712,-8.4748,-8.4306,-8.4307,-8.4307,0,-8.2968,-8.3162,-8.3158,-8.3304,-8.3374,-8.332,-8.3483,-8.3544,-8.3669,-8.3718,-8.3655,-8.3911,-8.3966,-8.4189,-8.4257,-8.4307,-8.4351,-8.4274,-8.4578,-8.4606,-8.4633,-8.4729,-8.4767,-8.4316,-8.4315,-8.4314,-8.4313,0,-8.3299,-8.3434,-8.3551,-8.3676,-8.3759,-8.3912,-8.3931,-8.4015,-8.4001,-8.4027,-8.4212,-8.4277,-8.4402,-8.4454,-8.444,-8.4675,-8.4639,-8.4577,-8.4465,-8.4681,-8.4772,-8.4808,-8.4329,-8.4326,-8.4323,-8.4321,0,0,-8.3624,-8.3746,-8.379,-8.3847,-8.3947,-8.4051,-8.4201,-8.4325,-8.4398,-8.4486,-8.4613,-8.4786,-8.4731,-8.4799,-8.4792,-8.4898,-8.5118,-8.4824,-8.4826,-8.4878,-8.5382,-8.543,-8.5473,-8.509,-8.5097,-8.5102,-8.5376,0,-8.3885,-8.4151,-8.4153,-8.4398,-8.4523,-8.4475,-8.4606,-8.4682,-8.471,-8.4819,-8.4849,-8.4974,-8.489,-8.4931,-8.5033,-8.5069,-8.5219,-8.5049,-8.5208,-8.5214,-8.519,-8.552,-8.557,-8.5825,-8.5411,-8.5417,-8.5421,0,-8.4225,-8.4327,-8.4585,-8.4669,-8.4722,-8.484,-8.4955,-8.506,-8.5145,-8.5158,-8.5235,-8.5213,-8.5366,-8.5249,-8.546,-8.5345,-8.541,-8.5437,-8.5447,-8.5463,-8.5332,-8.5546,-8.5905,-8.5945,-8.5477,-8.5472,-8.5468,0,-8.444,-8.4641,-8.4821,-8.4871,-8.4973,-8.5058,-8.5104,-8.5182,-8.5257,-8.5356,-8.5405,-8.552,-8.5584,-8.5673,-8.5683,-8.5596,-8.5896,-8.5779,-8.5912,-8.5912,-8.5979,-8.5975,-8.6355,-8.6018,-8.6017,-8.6016,-8.6015,0,-8.4732,-8.4892,-8.492,-8.5031,-8.5209,-8.5209,-8.5385,-8.5424,-8.5494,-8.5612,-8.5576,-8.5687,-8.5692,-8.5806,-8.5814,-8.5989,-8.6017,-8.6032,-8.6033,-8.6037,-8.6036,-8.6081,-8.6064,-8.6026,-8.6024,-8.6022,-8.602,0,-8.5002,-8.5027,-8.5221,-8.5303,-8.5327,-8.5455,-8.5524,-8.563,-8.5655,-8.5805,-8.584,-8.5879,-8.6011,-8.6029,-8.6183,-8.6189,-8.64,-8.638,-8.6372,-8.637,-8.6503,-8.6491,-8.6927,-8.6985,-8.6608,-8.6611,-8.6614,0,-8.5188,-8.5311,-8.5406,-8.5484,-8.5535,-8.5659,-8.5736,-8.5741,-8.5822,-8.5929,-8.6023,-8.6152,-8.6256,-8.6469,-8.6511,-8.6629,-8.6613,-8.6758,-8.6631,-8.6632,-8.6618,-8.6612,-8.6625,-8.6783,-8.6787,-8.6791,-8.6793,0,-8.5517,-8.5523,-8.5636,-8.5755,-8.5848,-8.5941,-8.6028,-8.6093,-8.6109,-8.6203,-8.6339,-8.6419,-8.6578,-8.6707,-8.6824,-8.687,-8.6836,-8.6833,-8.6871,-8.6877,-8.6868,-8.6877,-8.6441,-8.6823,-8.682,-8.6818,-8.6817,-8.6815,-8.5752,-8.5859,-8.5944,-8.6072,-8.6138,-8.6222,-8.6326,-8.6365,-8.6479,-8.661,-8.6605,-8.6756,-8.6838,-8.6992,-8.7047,-8.7164,-8.7116,-8.717,-8.7184,-8.7198,-8.7212,-8.6848,-8.7184,-8.7184,-8.7183,-8.7182,-8.7182,0,-8.608,-8.6133,-8.625,-8.6375,-8.6476,-8.6435,-8.653,-8.6617,-8.675,-8.6831,-8.6934,-8.7091,-8.7217,-8.7269,-8.7391,-8.7475,-8.7463,-8.7507,-8.7502,-8.7514,-8.7246,-8.7203,-8.7516,-8.7516,-8.7516,-8.7516,-8.7516,-8.7516,-8.6263,-8.6444,-8.6461,-8.6674,-8.6725,-8.6873,-8.6932,-8.7008,-8.7073,-8.7251,-8.7355,-8.7389,-8.7458,-8.7586,-8.7699,-8.7711,-8.7759,-8.7812,-8.7817,-8.7566,-8.7532,-8.75,-8.7459,-8.7821,-8.7822,-8.8075,-8.8077,-8.8079]}]]